SCP
0 0 0 -0 0 0 0 -0 -0 0 0 0 0 -0 -0 -0 -0 -0 -0 -0 0 -0 -0 -0 -0 -0 -0 -0 -0 -0 -0 -0
0 0 0 0 0 0 0 0 0 0 0 0 0 0 -0 -0 -0 -0 -0 -0 0 -0 0 0 -0 0 0 -0 -0 -0 -0 -0
0 0 -0 0 0 0 0 0 0 0 0 0 -0 -0 -0 -0 -0 -0 -0 -0 -0 0 0 0 0 0 0 -0 -0 -0 0 0
0 0 0 -0 0 0 0 0 0 0 0 0 -0 -0 -0 -0 -0 -0 -0 0 0 0 0 0 0 0 -0 -0 -0 -0 0 0
0 0 0 0 0 0 0 0 0 -0 0 0 0 0 0 0 -0 -0 0 0 0 0 0 0 0 -0 -0 -0 -0 -0 0 0
0 0 0 0 0 0 0 0 -0 -0 -0 0 0 -0 0 0 0 0 0 0 0 0 0 0 0 0 -0 -0 -0 -0 -0 0
0 0 0 0 0 0 0 0 0 -0 -0 -0 -0 -0 0 0 0 0 0 0 0 0 0 0 0 0 0 0 0 0 0 0
0 -0 -0 0 0 -0 0 -0 0 -0 -0 -0 -0 -0 0 0 0 0 0 0 0 0 0 0 0 0 0 0 0 0 0 0
0 0 -0 -0 0 0 -0 0 -0 -0 -0 -0 -0 -0 0 0 0 0 0 0 0 0 0 0 0 0 0 0 0 0 0 0
0 -0 -0 -0 -0 0 -0 -0 0 -0 -0 -0 -0 -0 -0 0 0 0 0 0 0 0 0 0 0 0 0 0 0 0 0 0
0 -0 -0 -0 -0 0 -0 0 -0 -0 -0 -0 -0 -0 0 0 0 0 0 0 0 0 0 0 0 0 0 0 0 0 0 0
0 -0 -0 -0 0 -0 -0 -0 -0 -0 -0 -0 -0 -0 0 0 0 0 0 0 0 0 0 0 0 0 0 0 0 0 0 0
0 0 0 -0 0 -0 -0 -0 -0 -0 -0 -0 0 0 -0 -0 0 0 0 0 0 0 0 0 0 0 0 0 0 0 0 0
0 -0 0 0 -0 -0 -0 -0 -0 -0 -0 -0 0 0 0 0 -0 0 0 0 0 0 0 0 0 0 0 0 0 0 0 0
0 0 0 0 0 -0 -0 -0 -0 -0 -0 -0 0 0 0 0 0 0 0 0 0 0 0 0 0 0 0 0 0 0 0 0
0 0 0 -0 -0 -0 -0 -0 -0 -0 0 0 0 0 0 0 0 0 0 0 0 0 0 0 0 0 0 0 0 0 0 0
0 0 -0 -0 0 -0 -0 -0 0 0 0 0 0 0 0 0 0 0 0 0 0 0 0 0 0 0 0 0 0 0 0 0
0 0 0 0 -0 -0 -0 -0 -0 -0 0 0 0 0 0 0 0 0 0 0 0 0 0 0 0 0 0 0 0 0 0 0
0 0 0 0 0 0 0 0 0 0 0 0 0 0 0 0 0 0 0 0 0 0 0 0 0 0 0 0 0 0 0 0
0 0 0 0 -0 0 0 0 0 0 0 0 0 0 0 0 0 0 0 0 0 0 0 0 0 0 0 0 0 0 0 0
Wind_Speed_500mb
8 7 8 7 5 13 32 21 7 10 20 11 8 24 25 22 24 24 26 26 27 26 25 24 22 21 20 18 13 9 10 13
9 9 4 10 14 17 18 12 11 27 12 16 15 19 20 29 28 29 32 33 34 33 30 28 27 26 23 22 19 15 9 3
9 5 6 2 31 28 10 7 18 8 9 13 21 23 28 30 32 32 41 41 37 31 27 26 24 24 23 21 18 16 12 8
7 10 3 7 26 20 10 15 18 25 24 9 25 31 33 33 36 41 44 40 33 30 29 28 28 27 25 24 26 25 21 19
7 6 9 8 28 21 15 16 10 35 9 19 40 35 39 40 43 43 38 30 27 25 21 18 22 24 25 27 29 33 29 23
2 5 5 18 16 22 23 9 39 25 12 17 51 44 46 47 45 40 33 26 21 16 13 9 14 19 21 25 31 37 29 23
11 12 10 29 10 18 23 32 18 25 15 41 56 53 52 52 48 40 33 25 16 9 5 4 10 16 19 23 30 34 28 26
13 16 13 25 27 29 14 34 11 20 19 53 61 60 59 57 51 43 35 26 17 10 6 8 14 17 22 26 34 36 31 29
11 23 51 38 25 29 26 11 25 36 53 75 69 65 61 54 46 40 32 26 19 15 13 12 14 18 23 27 34 37 36 36
7 30 42 34 35 19 39 16 36 35 60 76 75 71 65 56 48 41 32 25 24 22 19 12 15 20 25 29 34 35 37 40
12 46 42 47 22 16 42 18 19 49 64 72 74 71 66 57 48 40 33 30 26 24 16 16 20 24 28 30 34 36 38 41
28 32 27 25 11 21 36 25 40 57 67 69 75 76 72 62 55 49 42 34 29 22 18 20 19 23 26 28 33 33 38 39
12 17 10 31 4 16 22 42 56 65 68 69 75 78 74 67 63 55 47 40 33 28 27 21 18 23 24 26 29 32 35 39
4 14 10 16 16 24 37 67 63 65 69 72 75 77 70 69 64 60 51 50 36 32 24 20 18 21 23 24 25 29 33 36
6 16 10 9 12 21 54 63 57 65 70 72 72 73 72 72 69 62 58 45 40 30 23 20 22 23 21 22 22 24 30 28
14 19 11 14 26 7 56 55 60 62 64 74 79 85 82 82 75 67 58 47 37 31 25 23 21 23 21 18 19 20 25 21
7 12 14 34 10 15 42 41 43 55 60 70 81 84 88 91 86 75 65 52 42 34 24 23 23 23 19 17 16 16 19 17
2 4 14 6 18 18 36 59 68 63 64 75 75 78 85 91 89 81 70 55 44 30 25 23 19 20 19 16 15 17 15 12
8 7 6 5 11 9 15 44 43 52 82 70 88 88 88 92 86 77 64 51 37 30 24 14 14 18 19 16 13 14 11 11
9 6 6 5 9 10 10 27 20 55 60 71 67 69 85 88 80 74 62 51 38 27 17 11 10 12 15 17 13 8 8 10
Wind_Direction_500mb
91 106 140 154 124 117 144 126 56 93 66 73 100 122 130 139 135 125 120 112 102 93 87 84 79 75 74 77 84 104 131 154
79 101 205 147 152 135 126 87 90 113 66 91 101 109 133 133 131 128 119 109 102 96 88 77 70 65 59 55 56 58 60 55
89 81 147 142 150 153 143 105 134 134 109 98 152 136 133 133 133 134 121 115 107 94 81 68 57 50 43 36 26 15 1 341
130 129 164 140 151 160 118 126 129 124 114 111 155 145 137 136 138 133 125 119 110 102 84 65 53 43 34 21 7 354 338 314
121 100 130 181 155 158 134 133 147 140 92 144 156 156 143 142 143 136 130 131 120 103 90 74 50 38 25 12 359 348 335 314
89 144 107 141 129 157 136 170 153 161 158 172 165 163 152 151 147 146 147 148 130 111 92 66 22 20 15 4 355 350 346 336
187 151 143 154 118 158 152 143 161 188 180 174 166 163 161 156 158 159 162 159 151 145 123 348 345 355 356 355 354 353 351 347
190 166 148 160 138 149 138 158 216 208 210 176 170 169 170 169 169 172 175 172 180 194 226 292 329 341 343 347 351 352 351 348
214 185 154 149 150 158 143 210 197 176 164 170 173 176 179 179 184 181 180 186 199 219 249 281 325 326 335 344 347 348 348 347
228 172 153 153 151 171 180 201 214 208 183 175 179 182 185 188 188 188 191 194 204 218 240 272 307 323 330 340 342 344 345 347
175 163 166 153 167 175 206 216 219 187 180 182 185 188 190 192 195 195 195 201 197 208 232 284 305 320 324 331 336 340 345 345
134 136 146 133 143 177 223 212 188 186 184 190 192 193 192 194 199 197 200 208 211 218 248 264 290 307 315 326 330 337 343 344
91 143 148 132 105 226 203 191 184 189 189 193 196 197 200 203 202 204 206 208 212 224 237 257 282 302 307 320 330 337 342 344
223 144 146 154 256 213 193 181 184 187 193 198 200 202 204 203 203 204 208 208 220 233 242 260 284 299 306 319 333 338 343 347
153 203 144 158 256 248 195 188 189 191 193 200 206 205 205 204 204 206 211 212 226 236 245 267 282 296 302 316 329 340 345 349
168 202 180 188 245 209 187 193 201 202 199 198 202 205 204 205 205 207 209 209 222 241 257 266 272 291 297 311 321 337 343 345
235 196 146 219 236 202 198 204 211 211 207 204 208 205 205 205 204 205 208 211 224 241 254 262 275 294 292 304 311 329 340 340
278 128 166 181 251 215 199 212 210 202 207 205 202 204 205 202 201 204 209 209 222 239 236 251 286 297 290 292 299 323 332 336
182 133 7 180 262 211 229 225 221 216 218 205 203 203 203 198 201 202 207 210 217 225 226 252 287 292 281 274 285 316 321 329
166 120 227 50 272 282 241 232 221 222 210 204 195 198 198 196 205 205 204 205 210 214 222 258 286 285 264 267 284 300 307 329
Wind_Speed_850mb
8 7 8 7 5 13 32 21 7 10 20 11 8 24 25 22 24 24 26 26 27 26 25 24 22 21 20 18 13 9 10 13
9 9 4 10 14 17 18 12 11 27 12 16 15 19 20 29 28 29 32 33 34 33 30 28 27 26 23 22 19 15 9 3
9 5 6 2 31 28 10 7 18 8 9 13 21 23 28 30 32 32 41 41 37 31 27 26 24 24 23 21 18 16 12 8
7 10 3 7 26 20 10 15 18 25 24 9 25 31 33 33 36 41 44 40 33 30 29 28 28 27 25 24 26 25 21 19
7 6 9 8 28 21 15 16 10 35 9 19 40 35 39 40 43 43 38 30 27 25 21 18 22 24 25 27 29 33 29 23
2 5 5 18 16 22 23 9 39 25 12 17 51 44 46 47 45 40 33 26 21 16 13 9 14 19 21 25 31 37 29 23
11 12 10 29 10 18 23 32 18 25 15 41 56 53 52 52 48 40 33 25 16 9 5 4 10 16 19 23 30 34 28 26
13 16 13 25 27 29 14 34 11 20 19 53 61 60 59 57 51 43 35 26 17 10 6 8 14 17 22 26 34 36 31 29
11 23 51 38 25 29 26 11 25 36 53 75 69 65 61 54 46 40 32 26 19 15 13 12 14 18 23 27 34 37 36 36
7 30 42 34 35 19 39 16 36 35 60 76 75 71 65 56 48 41 32 25 24 22 19 12 15 20 25 29 34 35 37 40
12 46 42 47 22 16 42 18 19 49 64 72 74 71 66 57 48 40 33 30 26 24 16 16 20 24 28 30 34 36 38 41
28 32 27 25 11 21 36 25 40 57 67 69 75 76 72 62 55 49 42 34 29 22 18 20 19 23 26 28 33 33 38 39
12 17 10 31 4 16 22 42 56 65 68 69 75 78 74 67 63 55 47 40 33 28 27 21 18 23 24 26 29 32 35 39
4 14 10 16 16 24 37 67 63 65 69 72 75 77 70 69 64 60 51 50 36 32 24 20 18 21 23 24 25 29 33 36
6 16 10 9 12 21 54 63 57 65 70 72 72 73 72 72 69 62 58 45 40 30 23 20 22 23 21 22 22 24 30 28
14 19 11 14 26 7 56 55 60 62 64 74 79 85 82 82 75 67 58 47 37 31 25 23 21 23 21 18 19 20 25 21
7 12 14 34 10 15 42 41 43 55 60 70 81 84 88 91 86 75 65 52 42 34 24 23 23 23 19 17 16 16 19 17
2 4 14 6 18 18 36 59 68 63 64 75 75 78 85 91 89 81 70 55 44 30 25 23 19 20 19 16 15 17 15 12
8 7 6 5 11 9 15 44 43 52 82 70 88 88 88 92 86 77 64 51 37 30 24 14 14 18 19 16 13 14 11 11
9 6 6 5 9 10 10 27 20 55 60 71 67 69 85 88 80 74 62 51 38 27 17 11 10 12 15 17 13 8 8 10
Wind_Direction_850mb
91 106 140 154 124 117 144 126 56 93 66 73 100 122 130 139 135 125 120 112 102 93 87 84 79 75 74 77 84 104 131 154
79 101 205 147 152 135 126 87 90 113 66 91 101 109 133 133 131 128 119 109 102 96 88 77 70 65 59 55 56 58 60 55
89 81 147 142 150 153 143 105 134 134 109 98 152 136 133 133 133 134 121 115 107 94 81 68 57 50 43 36 26 15 1 341
130 129 164 140 151 160 118 126 129 124 114 111 155 145 137 136 138 133 125 119 110 102 84 65 53 43 34 21 7 354 338 314
121 100 130 181 155 158 134 133 147 140 92 144 156 156 143 142 143 136 130 131 120 103 90 74 50 38 25 12 359 348 335 314
89 144 107 141 129 157 136 170 153 161 158 172 165 163 152 151 147 146 147 148 130 111 92 66 22 20 15 4 355 350 346 336
187 151 143 154 118 158 152 143 161 188 180 174 166 163 161 156 158 159 162 159 151 145 123 348 345 355 356 355 354 353 351 347
190 166 148 160 138 149 138 158 216 208 210 176 170 169 170 169 169 172 175 172 180 194 226 292 329 341 343 347 351 352 351 348
214 185 154 149 150 158 143 210 197 176 164 170 173 176 179 179 184 181 180 186 199 219 249 281 325 326 335 344 347 348 348 347
228 172 153 153 151 171 180 201 214 208 183 175 179 182 185 188 188 188 191 194 204 218 240 272 307 323 330 340 342 344 345 347
175 163 166 153 167 175 206 216 219 187 180 182 185 188 190 192 195 195 195 201 197 208 232 284 305 320 324 331 336 340 345 345
134 136 146 133 143 177 223 212 188 186 184 190 192 193 192 194 199 197 200 208 211 218 248 264 290 307 315 326 330 337 343 344
91 143 148 132 105 226 203 191 184 189 189 193 196 197 200 203 202 204 206 208 212 224 237 257 282 302 307 320 330 337 342 344
223 144 146 154 256 213 193 181 184 187 193 198 200 202 204 203 203 204 208 208 220 233 242 260 284 299 306 319 333 338 343 347
153 203 144 158 256 248 195 188 189 191 193 200 206 205 205 204 204 206 211 212 226 236 245 267 282 296 302 316 329 340 345 349
168 202 180 188 245 209 187 193 201 202 199 198 202 205 204 205 205 207 209 209 222 241 257 266 272 291 297 311 321 337 343 345
235 196 146 219 236 202 198 204 211 211 207 204 208 205 205 205 204 205 208 211 224 241 254 262 275 294 292 304 311 329 340 340
278 128 166 181 251 215 199 212 210 202 207 205 202 204 205 202 201 204 209 209 222 239 236 251 286 297 290 292 299 323 332 336
182 133 7 180 262 211 229 225 221 216 218 205 203 203 203 198 201 202 207 210 217 225 226 252 287 292 281 274 285 316 321 329
166 120 227 50 272 282 241 232 221 222 210 204 195 198 198 196 205 205 204 205 210 214 222 258 286 285 264 267 284 300 307 329